HRAVV MHTE-MHLC

Flight info

Callsign HRAVV
Flight time 0h 19m
Altitude 3500
Route BORDE DE LA COSTA
Aircraft C172/L-VGD/A

Departure

Time 2026-04-25 17:10
Airport Tela Airport (MHTE)

Arrival

Time 2026-04-25 17:29
Airport Golosón International Airport (MHLC)
Time Latitude Longitude Altitude Speed Heading
2026-04-25 17:00 15.77661 -87.47265 7 ft 0 kts 53°
2026-04-25 17:05 15.77661 -87.47264 7 ft 1 kts 52°
2026-04-25 17:05 15.77670 -87.47264 7 ft 2 kts 322°
2026-04-25 17:06 15.77673 -87.47267 7 ft 1 kts 298°
2026-04-25 17:06 15.77687 -87.47291 7 ft 8 kts 303°
2026-04-25 17:06 15.77704 -87.47356 7 ft 12 kts 328°
2026-04-25 17:06 15.77693 -87.47410 7 ft 11 kts 237°
2026-04-25 17:07 15.77640 -87.47495 7 ft 17 kts 237°
2026-04-25 17:07 15.77569 -87.47615 7 ft 22 kts 238°
2026-04-25 17:07 15.77486 -87.47752 7 ft 22 kts 239°
2026-04-25 17:07 15.77406 -87.47883 7 ft 21 kts 239°
2026-04-25 17:08 15.77332 -87.48009 7 ft 20 kts 235°
2026-04-25 17:08 15.77255 -87.48130 7 ft 20 kts 238°
2026-04-25 17:08 15.77185 -87.48234 7 ft 10 kts 218°
2026-04-25 17:08 15.77161 -87.48254 7 ft 2 kts 285°
2026-04-25 17:09 15.77187 -87.48243 7 ft 14 kts 52°
2026-04-25 17:09 15.77306 -87.48045 7 ft 50 kts 56°
2026-04-25 17:09 15.77543 -87.47656 19 ft 75 kts 56°
2026-04-25 17:09 15.77858 -87.47192 136 ft 81 kts 51°
2026-04-25 17:10 15.78214 -87.46713 249 ft 87 kts 52°
2026-04-25 17:10 15.78572 -87.46216 415 ft 85 kts 51°
2026-04-25 17:10 15.78915 -87.45721 588 ft 83 kts 57°
2026-04-25 17:10 15.79187 -87.45155 678 ft 92 kts 65°
2026-04-25 17:11 15.79420 -87.44533 800 ft 95 kts 68°
2026-04-25 17:11 15.79650 -87.43881 924 ft 96 kts 67°
2026-04-25 17:11 15.79930 -87.43244 1053 ft 97 kts 60°
2026-04-25 17:11 15.80292 -87.42657 1179 ft 97 kts 51°
2026-04-25 17:12 15.80730 -87.42123 1305 ft 98 kts 52°
2026-04-25 17:12 15.81071 -87.41509 1434 ft 98 kts 61°
2026-04-25 17:12 15.81385 -87.40880 1543 ft 100 kts 61°
2026-04-25 17:12 15.81718 -87.40224 1662 ft 105 kts 61°
2026-04-25 17:13 15.81953 -87.39504 1772 ft 109 kts 85°
2026-04-25 17:13 15.81959 -87.38976 1852 ft 111 kts 90°
2026-04-25 17:13 15.81940 -87.37887 1993 ft 114 kts 90°
2026-04-25 17:13 15.81923 -87.37063 2081 ft 114 kts 91°
2026-04-25 17:14 15.81909 -87.36236 2177 ft 113 kts 90°
2026-04-25 17:14 15.81897 -87.35419 2277 ft 113 kts 90°
2026-04-25 17:14 15.81884 -87.34608 2372 ft 112 kts 90°
2026-04-25 17:14 15.81872 -87.33803 2509 ft 115 kts 91°
2026-04-25 17:15 15.81823 -87.32952 2618 ft 120 kts 98°
2026-04-25 17:15 15.81667 -87.32094 2725 ft 122 kts 101°
2026-04-25 17:15 15.81496 -87.31222 2826 ft 123 kts 102°
2026-04-25 17:15 15.81325 -87.30355 2932 ft 125 kts 102°
2026-04-25 17:16 15.81153 -87.29477 3031 ft 122 kts 102°
2026-04-25 17:16 15.80984 -87.28618 3128 ft 120 kts 102°
2026-04-25 17:16 15.80817 -87.27775 3222 ft 119 kts 102°
2026-04-25 17:16 15.80653 -87.26941 3304 ft 116 kts 102°
2026-04-25 17:17 15.80462 -87.26135 3400 ft 113 kts 106°
2026-04-25 17:17 15.80242 -87.25361 3481 ft 113 kts 107°
2026-04-25 17:17 15.80011 -87.24563 3505 ft 117 kts 108°
2026-04-25 17:17 15.79780 -87.23754 3487 ft 117 kts 107°
2026-04-25 17:18 15.79551 -87.22957 3496 ft 114 kts 106°
2026-04-25 17:18 15.79346 -87.22158 3500 ft 114 kts 105°
2026-04-25 17:18 15.79148 -87.21362 3500 ft 114 kts 105°
2026-04-25 17:18 15.78951 -87.20578 3499 ft 113 kts 105°
2026-04-25 17:19 15.78753 -87.19787 3500 ft 112 kts 105°
2026-04-25 17:19 15.78555 -87.18998 3500 ft 112 kts 105°
2026-04-25 17:19 15.78360 -87.18222 3501 ft 112 kts 105°
2026-04-25 17:19 15.78168 -87.17435 3504 ft 113 kts 105°
2026-04-25 17:20 15.77973 -87.16640 3502 ft 113 kts 105°
2026-04-25 17:20 15.77778 -87.15843 3501 ft 113 kts 105°
2026-04-25 17:20 15.77585 -87.15059 3501 ft 114 kts 105°
2026-04-25 17:20 15.77386 -87.14252 3514 ft 117 kts 105°
2026-04-25 17:21 15.77181 -87.13424 3505 ft 119 kts 105°
2026-04-25 17:21 15.76973 -87.12588 3502 ft 121 kts 105°
2026-04-25 17:21 15.76761 -87.11740 3501 ft 121 kts 105°
2026-04-25 17:21 15.76551 -87.10898 3505 ft 122 kts 105°
2026-04-25 17:22 15.76335 -87.10040 3502 ft 123 kts 105°
2026-04-25 17:22 15.76191 -87.09467 3501 ft 123 kts 105°
2026-04-25 17:22 15.75903 -87.08323 3501 ft 123 kts 105°
2026-04-25 17:22 15.75684 -87.07460 3497 ft 122 kts 105°
2026-04-25 17:23 15.75470 -87.06616 3489 ft 122 kts 105°
2026-04-25 17:23 15.75248 -87.05743 3379 ft 127 kts 105°
2026-04-25 17:23 15.75022 -87.04860 3251 ft 127 kts 105°
2026-04-25 17:23 15.74791 -87.03958 3148 ft 130 kts 105°
2026-04-25 17:24 15.74560 -87.03060 3023 ft 130 kts 105°
2026-04-25 17:24 15.74302 -87.02162 2900 ft 129 kts 110°
2026-04-25 17:24 15.73997 -87.01280 2746 ft 128 kts 110°
2026-04-25 17:24 15.73697 -87.00439 2608 ft 123 kts 111°
2026-04-25 17:25 15.73401 -86.99614 2480 ft 121 kts 111°
2026-04-25 17:25 15.73107 -86.98801 2353 ft 120 kts 111°
2026-04-25 17:25 15.72814 -86.98000 2228 ft 119 kts 111°
2026-04-25 17:25 15.72577 -86.97157 2143 ft 124 kts 103°
2026-04-25 17:26 15.72398 -86.96261 2023 ft 128 kts 101°
2026-04-25 17:26 15.72224 -86.95360 1900 ft 129 kts 101°
2026-04-25 17:26 15.72055 -86.94447 1741 ft 127 kts 96°
2026-04-25 17:26 15.72022 -86.93527 1577 ft 126 kts 89°
2026-04-25 17:27 15.72010 -86.92628 1395 ft 125 kts 89°
2026-04-25 17:27 15.71989 -86.91742 1209 ft 119 kts 86°
2026-04-25 17:27 15.72041 -86.90908 1055 ft 114 kts 79°
2026-04-25 17:27 15.72089 -86.90643 993 ft 113 kts 73°
2026-04-25 17:28 15.72548 -86.89395 681 ft 110 kts 62°
2026-04-25 17:28 15.72847 -86.88677 537 ft 104 kts 64°
2026-04-25 17:28 15.73119 -86.88016 420 ft 98 kts 63°
2026-04-25 17:28 15.73390 -86.87374 286 ft 95 kts 63°
2026-04-25 17:29 15.73636 -86.86778 167 ft 86 kts 62°
2026-04-25 17:29 15.73863 -86.86244 70 ft 77 kts 62°
2026-04-25 17:29 15.74053 -86.85788 53 ft 56 kts 61°
2026-04-25 17:29 15.74183 -86.85476 53 ft 41 kts 66°
2026-04-25 17:30 15.74274 -86.85248 53 ft 20 kts 80°
2026-04-25 17:30 15.74303 -86.85179 53 ft 7 kts 37°
2026-04-25 17:30 15.74356 -86.85181 53 ft 8 kts 340°
2026-04-25 17:30 15.74420 -86.85193 53 ft 10 kts 17°
2026-04-25 17:31 15.74461 -86.85202 53 ft 0 kts 338°